User: anonymous   Login
Location: Diebersbach
(48.5163°N, 8.0558°E)
Time: 22:24:41
(UTC+00:00)
Language:

Cosmos 1606 - Orbit

View from above orbital plane
View from above orbital plane
View from above satellite
View from above satellite

Ground track
Ground track

The orbit data is extracted from the following two-line orbital elements,

1 15369U 84111A   21266.84635784  .00001021  00000-0  49467-4 0  9999
2 15369  82.5301  26.3532 0015791 241.5490 118.4153 15.17317521 16827
Epoch (UTC): 23 September 2021 20:18:45
Eccentricity: 0.0015791
inclination: 82.5301°
perigee height: 503 km
apogee height: 525 km
right ascension of ascending node: 26.3532°
argument of perigee: 241.5490°
revolutions per day: 15.17317521
mean anomaly at epoch: 118.4153°
orbit number at epoch: 1682

The dashed part of the orbit path shows where the satellite is in the earth's shadow,  

DLR